Hamilton, OH

2:01 PM EST on December 13, 2017 (GMT -0500)
Butler County Regional

Weather History for KHAO - May, 2013

Change the Weather History Date:

Thursday, May 9, 2013

  Actual Average (KLUK) Record (KLUK)
Temperature  
Mean Temperature 66 °F -  
Max Temperature 82 °F 70 °F 90 °F (1963)
Min Temperature 50 °F 49 °F 34 °F (1980)
Growing Degree Days 16 (Base 50)    
Moisture  
Dew Point 53 °F    
Average Humidity 86    
Maximum Humidity 100    
Minimum Humidity 39    
Precipitation  
Precipitation 0.01 in - - ()
Sea Level Pressure  
Sea Level Pressure 30.00 in    
Wind  
Wind Speed 1 mph (SSW)    
Max Wind Speed 8 mph    
Max Gust Speed 18 mph    
Visibility 4 miles    
Events Fog , Rain    
Averages and records for this station are not official NWS values.
T = Trace of Precipitation, MM = Missing Value Source: NWS Daily Summary

Daily Weather History Graph

Daily Weather History Graph

Search for Another Location

Airport or City:

Trip Planner

Search our weather history database for the weather conditions in past years. The results will help you decide how hot, cold, wet, or windy it might be!

Date:

Astronomy

May. 09, 2013 Rise Set
Actual Time 6:30 AM EDT 8:39 PM EDT
Civil Twilight 6:00 AM EDT 9:09 PM EDT
Nautical Twilight 5:23 AM EDT 9:45 PM EDT
Astronomical Twilight 4:44 AM EDT 10:25 PM EDT
Moon 6:13 AM EDT (5/9) 8:33 PM EDT (5/9)
Length of Visible Light 15h 09m
Length of Day
14h 09m
Waning Crescent, 0% of the Moon is Illuminated
May 9
Waning Crescent
May 9
New
May 18
First Quarter
May 25
Full
May 31
Last Quarter

Hourly Weather History & Observations

Time (EDT) Temp. Heat Index Dew Point Humidity Pressure Visibility Wind Dir Wind Speed Gust Speed Precip Events Conditions
12:53 AM 59.0 °F - 57.0 °F 93% 30.01 in 7.0 mi Calm Calm - N/A   Mostly Cloudy
1:53 AM 55.0 °F - 54.0 °F 96% 30.00 in 4.0 mi Calm Calm - N/A   Partly Cloudy
2:53 AM 54.0 °F - 53.1 °F 97% 29.99 in 4.0 mi Calm Calm - N/A   Clear
3:11 AM 53.6 °F - 51.8 °F 94% 29.98 in 1.8 mi Calm Calm - N/A   Clear
3:18 AM 53.6 °F - 51.8 °F 94% 29.98 in 0.8 mi Calm Calm - N/A   Clear
3:26 AM 53.6 °F - 51.8 °F 94% 29.98 in 2.0 mi Calm Calm - N/A   Clear
3:33 AM 53.6 °F - 51.8 °F 94% 29.98 in 4.0 mi Calm Calm - N/A   Clear
3:45 AM 53.6 °F - 51.8 °F 94% 29.98 in 2.5 mi Calm Calm - N/A   Partly Cloudy
3:53 AM 53.1 °F - 51.1 °F 93% 29.97 in 1.2 mi Calm Calm - 0.01 in   Scattered Clouds
3:55 AM 51.8 °F - 51.8 °F 100% 29.98 in 0.8 mi Calm Calm - N/A   Mist
4:53 AM 52.0 °F - 51.1 °F 97% 29.99 in 1.0 mi Calm Calm - N/A   Mist
4:58 AM 51.8 °F - 51.8 °F 100% 30.00 in 1.8 mi Calm Calm - N/A   Partly Cloudy
5:06 AM 51.8 °F - 50.0 °F 94% 30.00 in 2.0 mi Calm Calm - N/A   Clear
5:09 AM 51.8 °F - 50.0 °F 94% 30.00 in 1.5 mi Calm Calm - N/A   Clear
5:18 AM 51.8 °F - 51.8 °F 100% 30.00 in 0.2 mi Calm Calm - N/A Fog Fog
5:35 AM 51.8 °F - 50.0 °F 94% 30.00 in 1.2 mi Calm Calm - N/A   Partly Cloudy
5:45 AM 50.0 °F - 48.2 °F 94% 30.00 in 1.0 mi Calm Calm - N/A   Mist
5:48 AM 50.0 °F - 48.2 °F 94% 30.00 in 2.0 mi Calm Calm - N/A   Scattered Clouds
5:53 AM 50.0 °F - 48.9 °F 96% 30.00 in 8.0 mi Calm Calm - N/A   Scattered Clouds
6:01 AM 50.0 °F - 48.2 °F 94% 30.00 in 1.5 mi Calm Calm - N/A   Scattered Clouds
6:10 AM 51.8 °F - 50.0 °F 94% 30.00 in 0.8 mi Calm Calm - N/A   Scattered Clouds
6:16 AM 50.0 °F - 48.2 °F 94% 30.00 in 1.8 mi Calm Calm - N/A   Scattered Clouds
6:19 AM 50.0 °F - 48.2 °F 94% 30.01 in 1.8 mi Calm Calm - N/A   Scattered Clouds
6:25 AM 50.0 °F - 48.2 °F 94% 30.01 in 0.8 mi Calm Calm - N/A   Scattered Clouds
6:33 AM 50.0 °F - 48.2 °F 94% 30.01 in 0.2 mi Calm Calm - N/A Fog Fog
6:45 AM 51.8 °F - 50.0 °F 94% 30.02 in 1.5 mi Calm Calm - N/A   Scattered Clouds
6:53 AM 51.1 °F - 51.1 °F 100% 30.02 in 1.5 mi Calm Calm - N/A   Partly Cloudy
7:05 AM 51.8 °F - 51.8 °F 100% 30.03 in 1.8 mi Calm Calm - N/A   Clear
7:15 AM 53.6 °F - 51.8 °F 94% 30.03 in 2.0 mi Calm Calm - N/A   Clear
7:44 AM 55.4 °F - 55.4 °F 100% 30.03 in 3.0 mi East 3.5 mph - N/A   Clear
7:53 AM 55.9 °F - 55.9 °F 100% 30.02 in 4.0 mi East 3.5 mph - N/A   Clear
8:53 AM 62.1 °F - 59.0 °F 90% 30.03 in 7.0 mi Calm Calm - N/A   Clear
9:53 AM 66.0 °F - 57.9 °F 75% 30.03 in 10.0 mi Calm Calm - N/A   Clear
10:53 AM 69.1 °F - 57.9 °F 68% 30.03 in 10.0 mi Variable 3.5 mph - N/A   Clear
11:53 AM 71.1 °F - 60.1 °F 68% 30.04 in 10.0 mi Variable 3.5 mph - N/A   Clear
1:53 PM 80.1 °F 80.2 °F 55.9 °F 43% 30.02 in 10.0 mi WSW 5.8 mph - N/A   Partly Cloudy
2:53 PM 79.0 °F - 55.9 °F 45% 30.01 in 10.0 mi NNW 4.6 mph - N/A   Partly Cloudy
4:53 PM 81.0 °F 80.5 °F 54.0 °F 39% 29.96 in 10.0 mi Variable 3.5 mph - N/A   Clear
5:53 PM 79.0 °F - 53.1 °F 40% 29.97 in 10.0 mi SW 6.9 mph - N/A   Scattered Clouds
6:53 PM 77.0 °F - 54.0 °F 45% 29.96 in 10.0 mi SSW 3.5 mph - N/A   Partly Cloudy
7:53 PM 69.1 °F - 57.9 °F 68% 29.97 in 9.0 mi WNW 8.1 mph 18.4 mph 0.00 in Rain Light Rain
8:53 PM 66.0 °F - 59.0 °F 78% 29.97 in 10.0 mi Calm Calm - 0.00 in   Mostly Cloudy
9:53 PM 64.9 °F - 59.0 °F 81% 29.99 in 10.0 mi Calm Calm - N/A   Clear
10:53 PM 63.0 °F - 60.1 °F 90% 29.96 in 10.0 mi Calm Calm - N/A   Mostly Cloudy
11:53 PM 64.9 °F - 59.0 °F 81% 29.94 in 10.0 mi ESE 3.5 mph - N/A   Scattered Clouds